Time,TemperatureF,DewpointF,PressureIn,WindDirection,WindDirectionDegrees,WindSpeedMPH,WindSpeedGustMPH,Humidity,HourlyPrecipIn,Conditions,Clouds,dailyrainin,SoftwareType,DateUTC
2013-04-09 00:02:00,75.0,54.0,29.87,North,357,3.0,15.0,48,0.00,,,0.74,,2013-04-09 00:02:00,
2013-04-09 00:12:00,75.0,54.0,29.87,North,357,3.0,15.0,48,0.00,,,0.74,,2013-04-09 00:12:00,
2013-04-09 00:22:00,75.0,55.0,29.86,North,3,3.0,12.0,49,0.00,,,0.74,,2013-04-09 00:22:00,
2013-04-09 00:32:00,73.0,54.0,29.87,NNW,338,3.0,11.0,51,0.00,,,0.62,,2013-04-09 00:32:00,
2013-04-09 00:42:00,73.0,55.0,29.87,North,6,3.0,9.0,54,0.00,,,0.62,,2013-04-09 00:42:00,
2013-04-09 00:52:00,73.0,55.0,29.87,North,6,3.0,9.0,54,0.00,,,0.62,,2013-04-09 00:52:00,
2013-04-09 01:02:00,72.0,55.0,29.87,North,9,3.0,9.0,56,0.00,,,0.62,,2013-04-09 01:02:00,
2013-04-09 01:12:00,71.0,56.0,29.87,North,353,3.0,7.0,59,0.00,,,0.62,,2013-04-09 01:12:00,
2013-04-09 01:22:00,71.0,56.0,29.87,North,353,3.0,7.0,59,0.00,,,0.62,,2013-04-09 01:22:00,
2013-04-09 01:33:00,71.0,58.0,29.88,North,357,1.0,9.0,64,0.00,,,0.62,,2013-04-09 01:33:00,
2013-04-09 01:42:00,70.0,58.0,29.88,NNE,29,3.0,5.0,65,0.00,,,0.62,,2013-04-09 01:42:00,
2013-04-09 01:52:00,70.0,58.0,29.88,NNE,29,3.0,5.0,65,0.00,,,0.62,,2013-04-09 01:52:00,
2013-04-09 02:02:00,70.0,59.0,29.88,NNW,328,1.0,9.0,67,0.00,,,0.62,,2013-04-09 02:02:00,
2013-04-09 02:12:00,70.0,59.0,29.88,NNW,328,1.0,9.0,67,0.00,,,0.62,,2013-04-09 02:12:00,
2013-04-09 02:22:00,70.0,60.0,29.88,NNE,23,2.0,8.0,70,0.00,,,0.62,,2013-04-09 02:22:00,
2013-04-09 02:32:00,69.0,59.0,29.90,NNW,342,0.0,6.0,71,0.00,,,0.62,,2013-04-09 02:32:00,
2013-04-09 02:42:00,69.0,60.0,29.91,North,357,1.0,5.0,72,0.00,,,0.62,,2013-04-09 02:42:00,
2013-04-09 02:52:00,69.0,60.0,29.91,North,357,1.0,5.0,72,0.00,,,0.62,,2013-04-09 02:52:00,
2013-04-09 03:02:00,70.0,61.0,29.92,NNW,333,1.0,4.0,72,0.00,,,0.62,,2013-04-09 03:02:00,
2013-04-09 03:12:00,70.0,61.0,29.92,NNW,333,1.0,4.0,72,0.00,,,0.62,,2013-04-09 03:12:00,
2013-04-09 03:21:00,70.0,61.0,29.91,NW,321,0.0,6.0,72,0.00,,,0.62,,2013-04-09 03:21:00,
2013-04-09 03:33:00,70.0,61.0,29.91,NE,34,1.0,6.0,72,0.00,,,0.62,,2013-04-09 03:33:00,
2013-04-09 03:43:00,70.0,61.0,29.91,NE,34,1.0,6.0,72,0.00,,,0.62,,2013-04-09 03:43:00,
2013-04-09 03:52:00,70.0,61.0,29.91,NNE,31,0.0,3.0,72,0.00,,,0.62,,2013-04-09 03:52:00,
2013-04-09 04:03:00,70.0,61.0,29.91,NNE,16,1.0,5.0,73,0.00,,,0.62,,2013-04-09 04:03:00,
2013-04-09 04:13:00,70.0,61.0,29.91,NNE,16,1.0,5.0,73,0.00,,,0.62,,2013-04-09 04:13:00,
2013-04-09 04:23:00,70.0,62.0,29.91,WNW,291,0.0,6.0,75,0.00,,,0.62,,2013-04-09 04:23:00,
2013-04-09 04:32:00,69.0,61.0,29.91,NNE,30,0.0,6.0,75,0.00,,,0.62,,2013-04-09 04:32:00,
2013-04-09 04:42:00,69.0,61.0,29.91,NNE,30,0.0,6.0,75,0.00,,,0.62,,2013-04-09 04:42:00,
2013-04-09 04:52:00,69.0,61.0,29.91,NNE,30,0.0,6.0,75,0.00,,,0.62,,2013-04-09 04:52:00,
2013-04-09 05:02:00,69.0,61.0,29.91,NNE,26,0.0,3.0,77,0.00,,,0.62,,2013-04-09 05:02:00,
2013-04-09 05:12:00,69.0,62.0,29.91,NNW,336,1.0,4.0,79,0.00,,,0.62,,2013-04-09 05:12:00,
2013-04-09 05:22:00,69.0,62.0,29.91,NNW,336,1.0,4.0,79,0.00,,,0.62,,2013-04-09 05:22:00,
2013-04-09 05:32:00,69.0,62.0,29.90,NE,37,0.0,4.0,79,0.00,,,0.62,,2013-04-09 05:32:00,
2013-04-09 05:42:00,69.0,63.0,29.90,NNE,23,0.0,5.0,80,0.00,,,0.62,,2013-04-09 05:42:00,
2013-04-09 05:52:00,69.0,63.0,29.90,NNE,23,0.0,5.0,80,0.00,,,0.62,,2013-04-09 05:52:00,
2013-04-09 06:02:00,69.0,63.0,29.90,NE,39,3.0,6.0,82,0.00,,,0.62,,2013-04-09 06:02:00,
2013-04-09 06:12:00,68.0,62.0,29.88,NE,34,0.0,6.0,81,0.00,,,0.62,,2013-04-09 06:12:00,
2013-04-09 06:22:00,68.0,62.0,29.88,NE,34,0.0,6.0,81,0.00,,,0.62,,2013-04-09 06:22:00,
2013-04-09 06:32:00,68.0,63.0,29.88,NNE,32,1.0,4.0,84,0.00,,,0.62,,2013-04-09 06:32:00,
2013-04-09 06:42:00,68.0,63.0,29.88,NNE,32,1.0,4.0,84,0.00,,,0.62,,2013-04-09 06:42:00,
2013-04-09 06:52:00,69.0,64.0,29.88,NW,311,0.0,3.0,83,0.00,,,0.62,,2013-04-09 06:52:00,
2013-04-09 07:02:00,68.0,62.0,29.87,NE,38,2.0,3.0,82,0.00,,,0.62,,2013-04-09 07:02:00,
2013-04-09 07:12:00,68.0,62.0,29.87,NE,38,2.0,3.0,82,0.00,,,0.62,,2013-04-09 07:12:00,
2013-04-09 07:22:00,68.0,63.0,29.87,NNE,28,1.0,5.0,84,0.00,,,0.62,,2013-04-09 07:22:00,
2013-04-09 07:32:00,69.0,64.0,29.87,ENE,65,0.0,5.0,84,0.00,,,0.62,,2013-04-09 07:32:00,
2013-04-09 07:42:00,69.0,64.0,29.87,ENE,65,0.0,5.0,84,0.00,,,0.62,,2013-04-09 07:42:00,
2013-04-09 07:52:00,69.0,65.0,29.86,West,280,1.0,5.0,86,0.00,,,0.62,,2013-04-09 07:52:00,
2013-04-09 08:03:00,70.0,66.0,29.85,NNE,17,2.0,6.0,86,0.00,,,0.62,,2013-04-09 08:03:00,
2013-04-09 08:12:00,70.0,66.0,29.85,NNE,17,2.0,6.0,86,0.00,,,0.62,,2013-04-09 08:12:00,
2013-04-09 08:22:00,69.0,64.0,29.85,NW,304,3.0,6.0,84,0.00,,,0.62,,2013-04-09 08:22:00,
2013-04-09 08:32:00,69.0,65.0,29.85,WNW,296,0.0,5.0,87,0.00,,,0.62,,2013-04-09 08:32:00,
2013-04-09 08:42:00,69.0,65.0,29.85,West,280,0.0,4.0,87,0.00,,,0.62,,2013-04-09 08:42:00,
2013-04-09 08:52:00,69.0,65.0,29.85,West,280,0.0,4.0,87,0.00,,,0.62,,2013-04-09 08:52:00,
2013-04-09 09:02:00,69.0,65.0,29.85,NE,45,1.0,3.0,87,0.00,,,0.62,,2013-04-09 09:02:00,
2013-04-09 09:12:00,69.0,65.0,29.84,NNW,343,0.0,4.0,87,0.00,,,0.62,,2013-04-09 09:12:00,
2013-04-09 09:22:00,69.0,65.0,29.84,NNW,343,0.0,4.0,87,0.00,,,0.62,,2013-04-09 09:22:00,
2013-04-09 09:33:00,69.0,66.0,29.85,NW,321,4.0,9.0,90,0.00,,,0.62,,2013-04-09 09:33:00,
2013-04-09 09:43:00,69.0,66.0,29.85,NW,321,4.0,9.0,90,0.00,,,0.62,,2013-04-09 09:43:00,
2013-04-09 09:52:00,69.0,66.0,29.85,West,279,1.0,9.0,90,0.00,,,0.62,,2013-04-09 09:52:00,
2013-04-09 10:03:00,69.0,66.0,29.85,NW,312,1.0,7.0,89,0.00,,,0.62,,2013-04-09 10:03:00,
2013-04-09 10:12:00,69.0,66.0,29.85,NW,312,1.0,7.0,89,0.00,,,0.62,,2013-04-09 10:12:00,
2013-04-09 10:23:00,70.0,67.0,29.85,NW,322,2.0,7.0,90,0.00,,,0.62,,2013-04-09 10:23:00,
2013-04-09 10:33:00,70.0,67.0,29.86,North,4,6.0,9.0,90,0.00,,,0.62,,2013-04-09 10:33:00,
2013-04-09 10:42:00,70.0,67.0,29.86,North,4,6.0,9.0,90,0.00,,,0.62,,2013-04-09 10:42:00,
2013-04-09 10:52:00,70.0,67.0,29.86,North,4,6.0,9.0,90,0.00,,,0.62,,2013-04-09 10:52:00,
2013-04-09 11:02:00,70.0,67.0,29.87,WNW,297,3.0,7.0,91,0.00,,,0.62,,2013-04-09 11:02:00,
2013-04-09 11:12:00,70.0,67.0,29.87,WNW,297,3.0,7.0,91,0.00,,,0.62,,2013-04-09 11:12:00,
2013-04-09 11:22:00,70.0,67.0,29.88,North,353,1.0,6.0,90,0.00,,,0.62,,2013-04-09 11:22:00,
2013-04-09 11:32:00,70.0,67.0,29.88,North,4,1.0,6.0,91,0.00,,,0.62,,2013-04-09 11:32:00,
2013-04-09 11:42:00,70.0,67.0,29.88,North,4,1.0,6.0,91,0.00,,,0.62,,2013-04-09 11:42:00,
2013-04-09 11:52:00,70.0,67.0,29.88,North,6,3.0,6.0,91,0.00,,,0.62,,2013-04-09 11:52:00,
2013-04-09 12:02:00,70.0,67.0,29.90,NNE,22,0.0,7.0,90,0.00,,,0.62,,2013-04-09 12:02:00,
2013-04-09 12:12:00,70.0,67.0,29.90,NNE,22,0.0,7.0,90,0.00,,,0.62,,2013-04-09 12:12:00,
2013-04-09 12:22:00,70.0,67.0,29.90,WNW,291,3.0,5.0,91,0.00,,,0.62,,2013-04-09 12:22:00,
2013-04-09 12:32:00,70.0,67.0,29.90,WNW,303,2.0,5.0,91,0.00,,,0.62,,2013-04-09 12:32:00,
2013-04-09 12:42:00,70.0,67.0,29.90,WNW,303,2.0,5.0,91,0.00,,,0.62,,2013-04-09 12:42:00,
2013-04-09 12:52:00,70.0,68.0,29.90,NNW,335,2.0,5.0,92,0.00,,,0.62,,2013-04-09 12:52:00,
2013-04-09 13:02:00,71.0,69.0,29.91,NW,322,3.0,5.0,92,0.00,,,0.62,,2013-04-09 13:02:00,
2013-04-09 13:12:00,71.0,69.0,29.91,NW,322,3.0,5.0,92,0.00,,,0.62,,2013-04-09 13:12:00,
2013-04-09 13:22:00,71.0,68.0,29.90,NNW,344,2.0,10.0,91,0.00,,,0.62,,2013-04-09 13:22:00,
2013-04-09 13:32:00,72.0,69.0,29.91,North,3,3.0,7.0,89,0.00,,,0.60,,2013-04-09 13:32:00,
2013-04-09 13:42:00,72.0,69.0,29.91,North,3,3.0,7.0,89,0.00,,,0.60,,2013-04-09 13:42:00,
2013-04-09 13:52:00,72.0,68.0,29.91,NNE,20,1.0,12.0,88,0.00,,,0.60,,2013-04-09 13:52:00,
2013-04-09 14:03:00,74.0,70.0,29.92,North,11,1.0,9.0,86,0.00,,,0.60,,2013-04-09 14:03:00,
2013-04-09 14:12:00,74.0,70.0,29.92,North,11,1.0,9.0,86,0.00,,,0.60,,2013-04-09 14:12:00,
2013-04-09 14:22:00,74.0,69.0,29.92,WNW,284,3.0,6.0,84,0.00,,,0.60,,2013-04-09 14:22:00,
2013-04-09 14:32:00,74.0,68.0,29.92,North,353,5.0,11.0,81,0.00,,,0.60,,2013-04-09 14:32:00,
2013-04-09 14:42:00,74.0,68.0,29.92,North,353,5.0,11.0,81,0.00,,,0.60,,2013-04-09 14:42:00,
2013-04-09 14:52:00,75.0,69.0,29.91,WNW,284,3.0,13.0,81,0.00,,,0.60,,2013-04-09 14:52:00,
2013-04-09 15:02:00,76.0,69.0,29.93,NNE,30,3.0,15.0,79,0.00,,,0.60,,2013-04-09 15:02:00,
2013-04-09 15:12:00,76.0,69.0,29.93,NNE,30,3.0,15.0,79,0.00,,,0.60,,2013-04-09 15:12:00,
2013-04-09 15:22:00,77.0,69.0,29.93,WNW,296,6.0,10.0,76,0.00,,,0.60,,2013-04-09 15:22:00,
2013-04-09 15:33:00,78.0,68.0,29.93,NW,316,3.0,10.0,72,0.00,,,0.60,,2013-04-09 15:33:00,
2013-04-09 15:43:00,78.0,68.0,29.93,NW,316,3.0,10.0,72,0.00,,,0.60,,2013-04-09 15:43:00,
2013-04-09 15:53:00,78.0,68.0,29.93,WNW,296,5.0,15.0,72,0.00,,,0.60,,2013-04-09 15:53:00,
2013-04-09 16:03:00,79.0,68.0,29.93,NW,310,3.0,13.0,68,0.00,,,0.15,,2013-04-09 16:03:00,
2013-04-09 16:13:00,79.0,68.0,29.93,NW,310,3.0,13.0,68,0.00,,,0.15,,2013-04-09 16:13:00,
2013-04-09 16:23:00,80.0,68.0,29.94,NNE,31,5.0,15.0,67,0.00,,,0.11,,2013-04-09 16:23:00,
2013-04-09 16:33:00,80.0,68.0,29.94,NW,326,4.0,12.0,66,0.00,,,0.03,,2013-04-09 16:33:00,
2013-04-09 16:53:00,80.0,67.0,29.95,NNE,21,6.0,11.0,65,0.00,,,0.03,,2013-04-09 16:53:00,
2013-04-09 17:02:00,80.0,66.0,29.94,West,261,7.0,16.0,62,0.00,,,0.03,,2013-04-09 17:02:00,
2013-04-09 17:12:00,80.0,67.0,29.94,WSW,244,3.0,15.0,65,0.00,,,0.03,,2013-04-09 17:12:00,
2013-04-09 17:23:00,80.0,67.0,29.94,WSW,244,3.0,15.0,65,0.00,,,0.03,,2013-04-09 17:23:00,
2013-04-09 17:32:00,83.0,68.0,29.93,NNE,13,1.0,14.0,60,0.00,,,0.00,,2013-04-09 17:32:00,
2013-04-09 17:42:00,83.0,68.0,29.93,NNE,13,1.0,14.0,60,0.00,,,0.00,,2013-04-09 17:42:00,
2013-04-09 17:53:00,82.0,67.0,29.94,North,8,3.0,12.0,60,0.00,,,0.00,,2013-04-09 17:53:00,
2013-04-09 18:02:00,83.0,66.0,29.93,North,353,6.0,14.0,56,0.00,,,0.00,,2013-04-09 18:02:00,
2013-04-09 18:12:00,83.0,66.0,29.93,North,353,6.0,14.0,56,0.00,,,0.00,,2013-04-09 18:12:00,
2013-04-09 18:22:00,84.0,67.0,29.93,ENE,73,3.0,14.0,57,0.00,,,0.00,,2013-04-09 18:22:00,
2013-04-09 18:33:00,84.0,64.0,29.92,NNE,16,6.0,14.0,51,0.00,,,0.00,,2013-04-09 18:33:00,
2013-04-09 18:43:00,84.0,64.0,29.92,NNE,16,6.0,14.0,51,0.00,,,0.00,,2013-04-09 18:43:00,
2013-04-09 18:52:00,85.0,65.0,29.91,NNW,348,6.0,15.0,51,0.00,,,0.00,,2013-04-09 18:52:00,
2013-04-09 19:02:00,85.0,65.0,29.91,NNW,348,6.0,15.0,51,0.00,,,0.00,,2013-04-09 19:02:00,
2013-04-09 19:12:00,85.0,65.0,29.91,NNW,348,6.0,15.0,51,0.00,,,0.00,,2013-04-09 19:12:00,
2013-04-09 19:22:00,85.0,65.0,29.91,NNW,348,6.0,15.0,51,0.00,,,0.00,,2013-04-09 19:22:00,
2013-04-09 19:32:00,84.0,65.0,29.90,NNE,12,3.0,14.0,53,0.00,,,0.00,,2013-04-09 19:32:00,
2013-04-09 19:42:00,84.0,65.0,29.90,NNE,12,3.0,14.0,53,0.00,,,0.00,,2013-04-09 19:42:00,
2013-04-09 19:52:00,84.0,64.0,29.88,NNW,333,4.0,12.0,51,0.00,,,0.00,,2013-04-09 19:52:00,
2013-04-09 20:02:00,84.0,64.0,29.89,NNW,341,6.0,14.0,51,0.00,,,0.00,,2013-04-09 20:02:00,
2013-04-09 20:12:00,84.0,64.0,29.88,NNW,332,3.0,12.0,51,0.00,,,0.00,,2013-04-09 20:12:00,
2013-04-09 20:22:00,84.0,64.0,29.88,NNW,332,3.0,12.0,51,0.00,,,0.00,,2013-04-09 20:22:00,
2013-04-09 20:33:00,85.0,64.0,29.88,NNW,347,3.0,14.0,50,0.00,,,0.00,,2013-04-09 20:33:00,
2013-04-09 20:42:00,85.0,64.0,29.88,NNW,347,3.0,14.0,50,0.00,,,0.00,,2013-04-09 20:42:00,
2013-04-09 20:52:00,86.0,65.0,29.88,NNW,348,4.0,16.0,49,0.00,,,0.00,,2013-04-09 20:52:00,
2013-04-09 21:02:00,88.0,64.0,29.87,North,6,3.0,18.0,45,0.00,,,0.00,,2013-04-09 21:02:00,
2013-04-09 21:13:00,88.0,64.0,29.87,North,6,3.0,18.0,45,0.00,,,0.00,,2013-04-09 21:13:00,
2013-04-09 21:22:00,88.0,64.0,29.87,North,6,3.0,18.0,45,0.00,,,0.00,,2013-04-09 21:22:00,
2013-04-09 21:33:00,88.0,63.0,29.86,NW,316,6.0,21.0,43,0.00,,,0.00,,2013-04-09 21:33:00,
2013-04-09 21:42:00,88.0,63.0,29.86,NW,316,6.0,21.0,43,0.00,,,0.00,,2013-04-09 21:42:00,
2013-04-09 21:52:00,87.0,62.0,29.87,North,3,3.0,15.0,43,0.00,,,0.00,,2013-04-09 21:52:00,
2013-04-09 22:03:00,86.0,62.0,29.88,North,11,5.0,12.0,45,0.00,,,0.00,,2013-04-09 22:03:00,
2013-04-09 22:13:00,84.0,63.0,29.88,North,358,4.0,12.0,49,0.00,,,0.00,,2013-04-09 22:13:00,
2013-04-09 22:23:00,84.0,63.0,29.88,North,358,4.0,12.0,49,0.00,,,0.00,,2013-04-09 22:23:00,
2013-04-09 22:33:00,84.0,62.0,29.88,WNW,283,2.0,16.0,48,0.00,,,0.00,,2013-04-09 22:33:00,
2013-04-09 22:42:00,84.0,62.0,29.88,WNW,283,2.0,16.0,48,0.00,,,0.00,,2013-04-09 22:42:00,
2013-04-09 22:53:00,84.0,63.0,29.89,West,280,5.0,15.0,50,0.00,,,0.00,,2013-04-09 22:53:00,
2013-04-09 23:02:00,83.0,62.0,29.89,North,350,2.0,11.0,50,0.00,,,0.00,,2013-04-09 23:02:00,
2013-04-09 23:12:00,80.0,62.0,29.90,NNE,25,3.0,15.0,55,0.00,,,0.00,,2013-04-09 23:12:00,
2013-04-09 23:22:00,80.0,62.0,29.90,NNE,25,3.0,15.0,55,0.00,,,0.00,,2013-04-09 23:22:00,
2013-04-09 23:32:00,80.0,63.0,29.91,North,352,3.0,15.0,56,0.00,,,0.00,,2013-04-09 23:32:00,
2013-04-09 23:42:00,80.0,63.0,29.91,North,352,3.0,15.0,56,0.00,,,0.00,,2013-04-09 23:42:00,
2013-04-09 23:53:00,79.0,64.0,29.90,North,352,3.0,9.0,60,0.00,,,0.00,,2013-04-09 23:53:00,